This is the latest recevied weather packets stored in our database for station/object SR4DIG-13. If no packets are shown the sender has not sent any weather packets the latest 10 day(s).
| Time | Temp. | Humidity | Pressure | Rain* | Wind** | Luminosity | Snow |
|---|---|---|---|---|---|---|---|
| 1788327099 | 18.33° C | 81% | 1016 hPa | 0 mm | - | - | - |
| 1788326798 | 17.22° C | 83% | 1015.9 hPa | 0 mm | - | - | - |
| 1788326497 | 16.67° C | 86% | 1016 hPa | 0 mm | - | - | - |
| 1788326196 | 15.56° C | 87% | 1015.8 hPa | 0 mm | - | - | - |
| 1788325895 | 15° C | 88% | 1015.8 hPa | 0 mm | - | - | - |
| 1788325594 | 14.44° C | 88% | 1015.9 hPa | 0 mm | - | - | - |
| 1788325293 | 14.44° C | 88% | 1015.9 hPa | 0 mm | - | - | - |
| 1788324993 | 14.44° C | 89% | 1015.7 hPa | 0 mm | - | - | - |
| 1788324356 | 14.44° C | 89% | 1015.8 hPa | 0 mm | - | - | - |
| 1788324055 | 14.44° C | 90% | 1015.7 hPa | 0 mm | - | - | - |
| 1788323754 | 14.44° C | 90% | 1015.7 hPa | 0 mm | - | - | - |
| 1788323453 | 13.89° C | 90% | 1015.7 hPa | 0 mm | - | - | - |
| 1788323152 | 13.33° C | 89% | 1015.7 hPa | 0 mm | - | - | - |
| 1788322851 | 13.33° C | 89% | 1015.7 hPa | 0 mm | - | - | - |
| 1788322550 | 13.33° C | 89% | 1015.8 hPa | 0 mm | - | - | - |
| 1788322249 | 13.33° C | 89% | 1015.9 hPa | 0 mm | - | - | - |
| 1788321948 | 13.33° C | 89% | 1015.7 hPa | 0 mm | - | - | - |
| 1788321647 | 13.33° C | 89% | 1015.7 hPa | 0 mm | - | - | - |
| 1788321347 | 13.33° C | 89% | 1015.7 hPa | 0 mm | - | - | - |
| 1788321046 | 13.33° C | 89% | 1015.6 hPa | 0 mm | - | - | - |
| 1788320745 | 12.78° C | 89% | 1015.5 hPa | 0 mm | - | - | - |
| 1788320444 | 12.78° C | 89% | 1015.5 hPa | 0 mm | - | - | - |
| 1788320143 | 12.78° C | 88% | 1015.6 hPa | 0 mm | - | - | - |
| 1788319842 | 13.33° C | 88% | 1015.6 hPa | 0 mm | - | - | - |
| 1788319586 | 13.33° C | 88% | 1015.5 hPa | 0 mm | - | - | - |
* Rain latest hour (hover to see other rain measurements)
** Current wind speed in m/s (hover to see current wind gust speed)